Location: Cosy Dell
(34.2789°N, 117.4537°W)
Time: 12:18:56
(UTC+00:00)

Cosmos 1459 Rocket - Pass Details

Date: 14 July 2020
Orbit: 938 x 999 km, 83.0° (Epoch: 08 August)

Event Time Altitude Azimuth Distance (km) Brightness Sun altitude
Exits shadow 09:35:24 54° 296° (WNW) 1,133 4.2 -29.3°
Drops below altitude 10° 09:40:58 10° 357° (N) 2,689 7.0 -28.8°
Sets 09:43:33 0° 1° (N) 3,647 7.9 -28.5°
